Regional Weather Roundup
Issued by NWS Charleston, WV

Home | Current Version | Previous Version | Graphics & Text | Print | Product List | Glossary On
Versions: 1 2 3 4 5 6 7 8 9 10 11 12 13 14 15 16 17 18 19 20 21 22 23 24 25 26 27 28
000
ASUS41 KRLX 220710
RWRRLX
West Virginia Regional Weather Roundup
National Weather Service Charleston WV
200 AM EST THU FEB 22 2018

Note: "fair" indicates few or no clouds below 12,000 feet with no
significant weather and/or obstructions to visibility.

WVZ003-220800-
Northern Panhandle of West Virginia

CITY           SKY/WX    TMP DP  RH WIND       PRES   REMARKS
WHEELING       LGT RAIN  39  35  86 NE8       30.48F
$$

WVZ009-220800-
Northwest West Virginia

CITY           SKY/WX    TMP DP  RH WIND       PRES   REMARKS
PARKERSBURG    CLOUDY    43  41  93 N6        30.46F
$$

WVZ006-220800-
Western West Virginia

CITY           SKY/WX    TMP DP  RH WIND       PRES   REMARKS
HUNTINGTON     CLOUDY    47  43  86 NE10      30.37F
$$

WVZ015-220800-
West Central West Virginia

CITY           SKY/WX    TMP DP  RH WIND       PRES   REMARKS
CHARLESTON     DRIZZLE   50  49  96 N5        30.37F
$$

WVZ022-031-220800-
North Central West Virginia

CITY           SKY/WX    TMP DP  RH WIND       PRES   REMARKS
CLARKSBURG     CLOUDY    46  43  89 N10       30.42F
MORGANTOWN     CLOUDY    44  41  89 N9        30.45F
$$

WVZ025-035-042-045-220800-
Southern West Virginia

CITY           SKY/WX    TMP DP  RH WIND       PRES   REMARKS
BECKLEY        FOG       56  56 100 CALM      30.37F VSB<1/4
LOGAN          CLOUDY    57  57 100 NE3       30.34F FOG
BLUEFIELD      FAIR      61  52  72 CALM      30.39F
LEWISBURG      FOG       51  51  99 CALM      30.40S VSB 1/4
$$

WVZ047-220800-
Northern Mountains of West Virginia

CITY           SKY/WX    TMP DP  RH WIND       PRES   REMARKS
ELKINS         CLOUDY    53  52  96 CALM      30.39F
$$

WVZ052-220800-
Eastern Panhandle of West Virginia

CITY           SKY/WX    TMP DP  RH WIND       PRES   REMARKS
MARTINSBURG    CLOUDY    55  49  80 N15G22    30.43R
PETERSBURG     CLOUDY    58  53  80 CALM      30.42S
$$




USA.gov is the U.S. government's official web portal to all federal, state and local government web resources and services.